Wind_Speed
22 24 25 24 21 18 19 21 24 27 30 31 31 31 29 27 26 26 26 27 28 28 29 29 29 29 29 30 30 30 30 30 30 31 31 32 32 33 33 33 32 30 30 34 37 37 38 40 41 42 41 39 38 37 38 38 39 42 46 47 46 46 48 50 52 55 58 58 57 56 55 53 51 51 50 49 49 48 49 51 52 53 55 56 56
23 25 24 21 18 17 20 22 25 28 29 29 29 28 28 27 27 27 28 28 29 29 29 29 30 30 31 32 32 33 33 33 34 34 35 35 35 35 36 36 36 35 32 33 35 36 38 39 41 43 43 43 44 43 42 41 41 42 44 45 46 47 48 49 51 52 55 57 58 57 55 54 52 52 51 51 51 50 50 50 50 51 52 54 56
24 25 22 19 17 18 21 23 25 27 28 26 26 27 28 29 30 30 30 30 30 30 30 30 31 32 33 34 34 35 35 35 35 35 36 36 37 37 38 38 39 39 38 37 37 37 37 38 39 41 43 45 46 46 45 44 43 43 43 44 44 45 46 47 48 49 51 54 57 57 54 53 53 52 52 52 52 51 51 50 50 50 50 51 52
23 23 20 17 16 18 21 23 24 25 25 24 25 26 29 31 31 31 31 30 30 30 31 32 33 34 35 35 36 37 37 37 37 37 38 38 39 40 41 41 42 42 42 42 41 40 39 39 39 39 41 43 45 45 45 45 44 43 43 43 43 44 45 44 44 46 48 51 55 56 54 52 52 52 52 52 52 52 52 51 50 50 49 49 49
21 20 19 17 17 19 21 22 24 23 23 22 24 27 30 31 32 31 31 31 31 31 32 34 35 36 38 38 39 39 39 40 40 40 41 41 42 43 44 45 45 45 45 45 44 44 43 42 41 40 40 41 43 44 44 44 43 42 42 42 43 43 44 43 43 43 45 47 50 52 52 51 51 51 52 52 52 52 52 51 50 49 48 47 46
20 20 19 18 19 20 21 22 22 22 21 20 22 26 30 32 32 32 32 32 33 34 36 37 38 39 41 42 42 42 42 43 43 43 43 43 44 45 45 46 46 46 46 45 45 45 45 44 43 42 41 41 42 43 44 44 43 41 41 41 42 42 42 42 42 43 44 45 47 48 48 49 50 50 51 51 51 51 51 50 49 48 46 45 43
22 22 21 20 20 21 22 22 22 23 22 20 21 25 29 31 33 34 35 35 36 37 39 40 41 42 43 44 44 44 44 45 45 45 45 45 45 46 47 47 47 47 46 45 44 44 44 44 43 42 42 41 41 41 43 43 43 42 41 41 40 40 40 42 42 43 43 44 45 46 46 47 48 49 49 49 49 49 48 48 46 45 45 43 41
24 23 21 20 20 21 22 22 23 24 23 22 23 25 28 31 35 38 39 40 40 41 41 42 42 43 44 45 46 45 46 46 46 46 46 46 47 47 48 48 48 47 46 45 44 44 44 44 44 43 43 43 41 40 40 41 41 41 41 40 40 40 40 41 41 42 43 43 43 44 43 44 44 45 46 46 46 46 45 44 43 42 42 41 39
26 24 22 20 20 21 22 23 24 24 24 24 24 27 29 32 36 41 43 44 44 44 43 43 44 45 46 47 47 47 47 47 47 47 47 47 48 48 49 50 50 49 47 46 45 44 44 44 43 42 43 43 42 40 38 38 39 40 40 40 40 40 40 40 40 41 41 41 41 41 41 41 41 41 41 42 42 42 41 41 40 39 39 38 36
28 26 23 21 21 21 23 24 25 26 26 26 27 29 31 33 37 43 46 47 47 47 46 46 47 48 48 48 48 48 48 48 48 47 47 48 48 49 50 51 51 49 47 46 45 44 43 42 41 40 40 41 40 39 37 36 37 38 38 38 38 38 38 38 39 39 39 38 38 38 38 38 38 37 37 38 39 38 37 37 37 36 35 34 33
31 29 25 23 24 24 25 26 28 28 28 29 30 31 32 35 39 45 49 49 48 49 48 48 50 50 48 48 50 51 51 50 48 47 47 48 49 50 51 52 52 50 47 46 45 44 42 40 39 38 37 37 37 36 35 34 34 35 35 35 35 36 36 36 36 36 36 35 35 35 34 34 34 34 34 34 35 35 35 34 34 33 32 32 31
33 30 28 27 28 29 29 29 31 31 31 32 33 33 34 36 40 46 50 50 50 51 50 50 50 48 47 49 52 53 52 51 49 48 48 49 49 51 52 52 52 50 48 46 45 44 42 40 38 37 36 35 34 33 33 32 32 32 32 32 32 32 32 33 33 33 32 32 31 31 31 31 31 31 31 32 32 33 33 32 31 30 30 29 28
33 31 30 31 31 31 31 32 33 33 34 35 36 36 36 38 43 48 50 50 51 52 51 50 48 46 47 51 54 54 54 53 51 49 49 49 50 51 52 52 52 51 49 47 46 45 43 40 39 37 36 34 32 31 31 30 30 29 29 29 29 29 29 29 29 29 29 28 28 28 28 28 28 29 29 30 30 30 30 30 29 28 27 26 25
32 31 32 32 32 32 33 34 35 36 37 38 39 39 39 42 46 49 50 50 52 52 50 48 46 46 49 54 55 55 56 56 54 51 50 50 51 52 53 53 52 52 50 48 46 45 43 41 39 37 35 34 32 30 29 29 28 27 27 27 26 26 26 25 25 25 25 25 26 26 26 27 27 27 28 28 28 28 27 27 26 25 25 24 22
32 32 32 32 33 33 34 36 37 38 38 39 40 41 42 45 48 48 49 51 51 50 48 46 46 47 51 56 58 57 58 59 57 53 52 52 52 52 53 53 52 52 50 48 46 45 43 41 39 37 35 33 31 30 29 28 27 26 25 25 24 24 23 23 23 23 23 23 24 24 25 25 26 26 27 27 27 26 26 25 24 24 23 23 22
31 32 32 33 34 35 36 37 38 38 38 39 40 42 44 46 47 48 49 50 50 48 47 46 47 50 54 58 59 59 59 59 58 55 53 52 52 51 52 52 51 51 50 48 46 44 42 40 38 36 34 32 30 29 28 27 25 24 23 23 22 22 22 22 22 22 22 22 22 23 24 24 24 25 26 26 25 25 25 25 24 23 23 22 22
31 31 32 33 35 36 36 37 37 37 38 39 41 43 45 46 47 48 48 49 48 47 46 46 49 52 56 59 60 59 59 59 58 56 54 52 51 51 51 51 50 49 49 48 46 44 42 40 37 35 33 31 30 28 27 25 24 22 21 21 21 20 20 20 20 20 21 21 21 22 23 23 23 24 24 25 24 24 24 24 23 23 22 22 22
30 31 32 34 35 36 36 37 36 36 38 40 42 44 46 47 48 47 47 47 46 45 45 48 51 54 58 60 60 60 59 59 57 56 54 52 50 50 50 50 49 48 48 47 46 44 41 38 36 33 31 30 28 27 25 23 21 21 20 19 19 19 19 19 19 19 20 20 20 21 21 22 22 23 24 24 23 22 22 22 22 22 21 21 21
31 31 32 34 34 35 35 36 36 37 39 41 43 45 47 47 46 45 44 43 43 44 47 50 53 56 60 61 61 60 59 58 57 55 53 51 49 49 49 48 47 47 47 46 44 42 39 36 34 31 29 28 27 25 24 22 20 20 20 19 19 18 18 18 19 19 19 20 20 20 21 21 22 22 22 22 21 20 20 21 21 21 22 22 22
30 30 32 33 33 34 35 36 37 39 41 43 44 46 46 45 43 40 40 41 43 46 50 52 55 59 61 62 61 60 59 58 56 54 52 50 48 49 48 46 46 46 46 44 42 40 37 34 32 29 28 26 25 24 23 22 20 20 19 19 18 18 18 18 19 20 20 20 20 20 21 21 21 21 20 20 21 21 21 22 23 24 24 24 24
30 31 31 32 33 33 34 36 38 40 43 44 45 46 44 41 38 38 39 42 45 49 52 54 57 60 62 62 61 60 58 56 54 53 51 48 47 48 46 45 45 46 45 44 40 38 35 32 30 28 26 25 23 22 21 20 20 19 19 18 17 17 18 18 18 19 19 19 19 19 19 19 19 19 20 21 22 23 24 25 26 27 28 27 27
32 32 32 33 33 33 34 36 37 39 42 43 43 44 42 39 37 39 42 45 48 51 54 56 58 61 63 62 61 60 58 54 52 51 49 46 46 46 44 44 45 45 45 43 39 36 33 31 28 27 25 23 22 20 19 18 18 18 18 17 17 17 17 17 17 17 17 17 18 18 18 19 20 21 22 24 25 26 27 29 30 30 30 30 30
33 33 35 35 33 32 33 34 35 37 38 39 40 41 42 40 39 42 45 47 50 53 55 57 60 62 63 62 61 59 56 52 51 49 46 44 45 44 43 44 45 45 44 42 39 35 32 29 27 25 23 22 21 19 18 17 17 17 17 17 16 16 16 17 17 17 18 18 19 20 21 22 23 24 26 27 28 29 30 31 31 32 32 32 33
34 34 34 32 31 32 34 35 36 37 38 40 40 39 39 40 42 44 46 49 52 54 56 59 61 62 62 60 59 57 52 49 48 47 44 44 44 43 43 44 44 44 43 41 38 35 31 27 25 24 22 21 20 19 19 17 17 17 17 17 17 17 17 17 18 19 20 21 22 23 24 25 26 27 28 28 29 29 30 31 32 33 35 37 37
33 30 29 28 30 34 36 38 38 38 40 42 40 38 38 40 42 45 47 50 54 56 58 61 62 62 60 58 56 52 48 46 46 44 42 43 43 43 43 44 43 42 42 40 37 34 31 27 25 23 22 21 20 20 19 19 18 18 18 18 18 18 18 19 19 21 23 24 25 26 26 26 27 27 28 28 29 30 32 33 36 37 38 38 37
35 33 32 33 34 36 38 39 38 38 40 41 39 38 41 42 42 45 48 51 55 57 59 61 62 60 58 55 51 47 45 44 42 40 41 41 41 42 44 43 42 41 40 39 37 34 31 28 26 24 23 22 21 20 20 20 19 19 19 19 19 19 19 19 21 22 24 25 26 27 27 27 27 28 29 31 32 34 36 37 38 38 36 33 31
42 39 37 36 36 38 39 38 38 37 38 40 39 39 41 42 43 46 49 52 55 57 58 59 59 57 55 52 47 44 42 40 38 38 40 40 40 42 43 42 41 41 40 38 36 34 31 29 27 26 25 24 23 22 21 21 21 20 20 20 19 19 20 20 22 23 24 26 27 28 29 30 31 33 34 35 36 37 37 36 34 31 29 27 25
42 37 36 38 42 44 42 40 38 35 34 36 37 38 40 42 43 45 47 50 53 56 57 58 57 55 52 47 43 41 39 36 35 37 38 38 39 42 42 41 41 41 40 38 36 34 31 29 28 27 26 25 25 24 24 23 23 23 23 23 23 23 23 23 24 25 27 28 30 31 33 34 35 36 36 36 35 33 31 29 27 25 24 23 22
41 37 38 41 43 42 39 38 36 33 30 32 35 38 40 42 43 45 48 51 54 56 58 58 56 53 49 44 40 39 35 32 33 36 36 36 39 41 41 40 40 40 40 38 36 34 31 29 28 27 27 26 26 26 25 25 24 24 24 24 25 25 26 26 27 28 29 31 31 32 33 33 33 32 31 29 27 25 24 23 22 22 21 20 19
41 39 40 41 41 38 34 33 32 31 30 32 35 39 41 43 45 48 51 53 55 56 57 57 55 51 46 41 38 35 31 30 32 34 34 35 38 40 40 40 40 40 39 38 36 34 32 30 29 28 27 27 27 27 27 27 26 25 24 24 24 24 25 26 26 27 28 29 29 29 28 27 26 25 23 22 21 21 20 20 19 18 17 16 15
40 40 40 41 43 39 31 28 29 31 32 34 36 39 42 44 47 49 50 51 53 55 56 56 52 47 42 38 35 31 28 29 32 32 32 35 38 39 38 39 40 40 39 37 36 34 33 31 30 29 28 28 29 28 28 27 25 24 24 23 23 23 23 23 23 24 24 24 24 23 23 22 21 20 20 19 19 18 17 16 15 14 14 13 13
41 42 41 42 42 37 30 28 30 32 33 34 36 40 42 44 45 46 48 51 54 57 56 53 48 43 38 35 31 27 27 29 30 30 32 35 37 37 37 38 40 40 39 37 35 35 34 32 31 30 29 29 28 28 27 26 24 23 23 22 22 23 23 22 22 21 21 20 20 19 19 19 19 18 17 17 16 14 13 12 12 12 13 13 14
47 45 42 41 38 33 30 29 30 31 32 33 35 38 40 41 43 46 50 53 57 59 56 50 43 38 34 30 26 25 26 28 28 29 32 35 36 36 36 37 39 39 38 36 35 34 34 33 32 31 30 29 28 28 26 25 24 23 22 22 21 21 21 22 22 21 20 19 19 18 18 17 17 16 15 13 12 11 11 11 12 13 13 13 13
48 45 40 36 33 29 28 28 29 29 29 29 32 35 38 40 44 48 52 55 59 58 53 45 39 35 30 26 23 24 26 27 27 29 32 35 35 35 36 37 39 39 37 36 34 34 33 33 32 31 31 30 29 28 27 25 24 23 22 21 20 20 20 20 21 21 20 20 19 18 17 15 14 13 12 11 10 10 11 11 12 12 12 12 11
44 40 34 30 29 28 27 27 26 25 24 26 30 35 39 43 46 50 52 56 58 55 48 41 36 31 26 22 22 23 25 26 27 29 32 34 35 35 35 37 38 39 38 36 34 33 33 33 33 32 31 30 29 28 27 26 24 23 22 22 21 20 20 20 20 19 19 19 18 17 15 13 11 10 9 9 9 10 11 11 11 11 10 10 11
37 35 32 28 26 25 22 21 21 21 24 29 34 38 42 45 47 49 53 55 55 51 45 39 34 28 23 21 21 23 24 25 27 29 31 32 33 34 35 36 38 39 38 36 34 33 33 33 33 32 31 30 30 28 27 26 25 23 22 22 22 21 21 20 19 18 18 17 16 14 12 11 9 8 8 8 9 10 11 11 11 10 10 11 12
32 31 27 22 19 17 16 18 22 26 31 36 38 40 42 44 46 48 52 53 52 48 42 36 30 24 21 20 21 22 24 25 26 27 28 30 32 34 35 36 37 38 38 37 35 34 34 33 33 32 31 30 30 29 28 26 25 24 23 22 22 21 20 19 18 18 17 16 14 12 9 8 7 8 8 9 10 10 11 11 10 11 12 13 14
30 27 21 17 16 17 19 24 29 34 36 38 40 41 41 42 45 48 51 52 50 45 39 33 28 22 20 20 21 23 24 25 24 25 26 29 32 34 36 37 37 38 39 38 37 35 34 34 33 32 31 30 30 29 28 27 26 25 23 22 21 20 20 19 19 18 17 15 12 10 8 6 6 7 8 9 10 11 11 11 11 12 14 15 17
29 26 23 20 21 23 26 30 35 38 40 40 41 42 42 42 45 49 50 50 48 44 38 33 27 22 21 21 22 23 24 23 22 23 26 28 32 35 37 38 38 39 40 40 38 36 35 34 34 33 32 31 30 29 28 27 26 25 23 22 21 20 20 19 19 18 16 13 11 9 7 6 6 7 9 10 10 11 11 11 12 14 16 18 19
30 28 27 26 27 29 31 34 38 41 41 40 39 40 41 42 45 49 51 49 47 44 39 33 27 24 22 22 23 23 23 21 22 24 27 29 32 35 38 39 39 40 40 41 40 38 36 35 35 34 33 32 30 29 28 27 26 25 24 22 21 21 20 19 18 16 14 11 9 7 5 5 7 9 10 10 11 11 12 13 15 17 18 20 21
33 32 32 32 32 33 34 36 39 40 40 40 39 39 40 42 44 48 50 48 45 43 39 33 29 26 25 24 24 24 23 22 23 26 28 31 33 35 38 40 40 40 41 41 41 39 37 36 36 35 33 32 31 29 28 27 26 25 24 23 22 21 20 18 16 13 11 10 8 5 5 6 8 10 11 12 12 13 14 16 17 18 19 20 21
38 38 37 35 35 36 36 36 37 39 39 40 40 39 39 41 44 47 47 46 45 43 40 35 32 30 28 26 25 25 25 25 26 28 30 32 34 36 38 40 41 41 41 41 41 40 39 37 36 35 34 32 30 29 28 27 26 25 24 23 21 19 17 15 13 11 10 8 7 5 6 8 10 12 13 14 14 15 16 17 18 19 20 21 22
43 43 42 38 37 38 38 36 37 40 40 40 40 41 40 40 42 45 45 44 44 44 42 39 36 33 31 28 27 27 28 28 28 30 32 33 34 36 38 40 42 42 42 41 41 40 39 37 36 35 33 31 30 29 28 27 26 24 22 21 19 16 14 12 11 11 9 8 7 7 8 10 12 14 14 15 15 16 17 18 19 20 21 22 24
48 46 46 44 41 40 39 39 40 42 42 39 38 41 42 40 41 43 43 43 44 46 45 43 39 35 32 31 29 29 30 30 30 32 33 34 35 37 38 40 41 42 42 41 41 40 38 37 36 35 33 31 30 28 27 26 25 23 21 19 17 15 13 12 11 10 10 9 9 10 11 13 14 15 15 16 16 17 18 19 20 21 22 24 25
50 48 47 48 47 44 42 42 42 44 45 40 37 39 40 39 41 44 44 43 45 48 48 47 43 38 34 32 31 30 31 31 32 33 34 34 35 37 39 40 41 42 42 41 40 40 38 37 35 34 33 31 29 28 26 25 24 22 20 18 17 15 13 12 11 10 10 10 11 12 13 14 15 15 16 17 17 18 19 20 21 23 24 25 26
51 50 49 49 49 49 48 46 43 43 45 43 38 39 41 40 40 43 45 45 46 50 51 49 46 41 37 35 33 31 32 33 33 34 35 35 36 38 39 40 41 42 42 41 40 39 38 36 34 34 33 31 29 27 25 24 23 21 20 18 16 15 13 12 12 11 11 12 12 13 14 14 15 16 17 18 18 19 20 21 22 24 25 27 29
52 52 52 51 50 50 50 50 47 46 46 43 38 38 42 43 40 41 44 46 48 51 52 50 48 45 40 37 35 33 33 34 35 35 36 36 37 38 39 39 40 42 42 41 39 39 38 35 34 33 32 30 29 26 24 23 21 20 19 17 16 15 14 13 12 12 12 13 13 14 15 15 16 17 18 19 20 21 22 23 24 26 28 30 32
55 55 54 53 52 51 51 51 49 47 48 46 40 38 40 43 42 42 44 48 51 52 52 52 51 47 42 39 37 35 34 35 36 37 37 37 37 38 40 40 40 41 42 41 39 38 37 35 32 31 30 29 28 26 23 21 20 19 18 16 15 14 14 13 13 13 13 14 15 16 17 18 18 19 20 21 22 23 25 26 27 29 31 33 35
54 54 54 53 53 52 51 51 50 48 47 47 44 41 40 42 43 44 47 50 52 52 52 53 53 49 43 39 38 37 36 36 37 37 38 38 38 39 40 40 40 41 42 40 38 37 36 34 31 30 29 28 26 25 23 21 19 18 17 16 15 15 14 14 14 15 16 17 18 19 19 20 20 21 22 23 24 26 28 30 32 34 36 38 39
50 50 51 51 51 50 50 50 50 49 48 47 46 44 44 44 45 46 49 51 52 52 53 55 54 50 44 40 39 39 38 38 37 37 38 39 39 39 40 40 39 40 41 40 38 37 36 33 30 29 28 27 25 24 22 21 19 18 17 16 16 16 16 17 17 18 19 20 20 21 22 22 23 24 25 26 28 30 32 34 36 38 40 41 43
45 46 47 48 48 48 48 49 49 49 48 47 46 45 45 45 45 47 50 52 52 53 55 56 56 51 45 40 39 39 39 39 38 38 38 39 39 40 41 40 39 39 40 40 37 36 35 33 30 28 27 26 25 24 22 21 20 19 19 18 18 18 19 19 20 21 21 22 23 23 24 25 26 27 28 30 31 33 35 37 39 40 42 43 45
Wind_Direction
325 329 333 335 337 339 335 334 337 339 342 345 348 350 351 352 355 358 359 1 0 359 358 356 354 352 349 347 344 342 339 337 336 337 338 338 337 335 332 328 324 322 316 306 302 300 297 294 293 293 293 291 288 282 277 273 270 269 269 271 272 270 270 272 273 275 279 282 283 284 285 287 287 288 287 287 285 283 280 278 278 279 281 282 282
323 326 329 331 335 334 330 331 334 338 343 348 352 355 357 359 1 2 1 -0 358 357 356 355 354 352 349 347 344 342 341 340 341 341 341 340 338 336 333 330 326 323 317 309 305 301 298 295 293 292 292 291 290 287 284 281 277 274 273 274 275 275 275 276 276 276 279 282 284 285 286 288 289 288 288 288 287 285 283 281 280 278 278 278 278
321 323 324 327 331 331 330 332 335 340 344 350 355 359 3 4 4 3 1 359 358 358 358 356 354 352 349 347 345 344 344 343 342 342 340 339 337 336 334 331 328 324 319 314 308 303 298 295 292 290 289 288 287 287 286 285 283 281 280 279 278 277 276 276 277 278 279 281 283 284 286 287 287 287 287 287 286 286 285 284 282 280 278 277 277
319 321 322 326 330 330 331 332 334 338 344 349 354 358 -0 0 1 0 359 359 360 360 359 357 355 353 351 348 347 346 345 344 343 341 339 337 335 334 333 331 328 324 320 316 311 306 301 297 293 290 288 286 285 285 285 285 285 284 283 282 280 278 277 277 277 277 277 278 280 283 284 285 285 286 286 286 286 286 285 284 283 282 281 281 280
318 319 320 323 326 326 327 329 330 334 340 347 354 357 358 358 359 358 358 358 359 358 357 356 355 353 350 348 346 345 344 343 341 339 338 336 335 334 332 330 327 324 320 316 312 308 304 300 297 294 291 288 286 285 284 283 283 284 283 282 280 280 279 279 278 277 276 276 277 280 283 285 285 285 285 285 285 285 284 284 284 284 283 283 282
316 317 317 317 319 320 322 325 325 326 331 339 350 355 357 359 359 357 355 354 353 352 351 351 350 347 344 342 341 341 341 340 338 337 337 337 336 334 332 330 327 325 321 316 311 308 305 302 299 297 296 294 291 288 286 285 285 284 283 281 281 282 283 282 281 280 278 278 279 281 284 285 285 285 285 284 284 284 284 285 285 286 285 284 282
312 313 313 313 315 318 319 320 319 319 320 324 335 344 351 355 356 354 351 349 347 346 345 345 344 341 339 337 337 337 337 336 334 334 335 335 335 334 332 331 328 324 320 315 311 308 305 304 302 300 299 297 294 291 289 288 288 286 285 284 285 286 285 283 283 282 282 282 283 283 284 283 283 283 282 282 282 283 284 285 286 287 286 285 283
307 309 309 312 315 315 315 315 314 314 313 313 319 329 338 345 349 349 348 346 344 343 342 342 340 337 335 335 335 334 334 333 332 332 332 332 332 332 331 330 327 324 320 318 315 312 309 307 305 303 302 301 298 294 291 290 289 289 289 289 288 287 285 284 284 284 285 285 284 284 283 282 281 280 281 282 283 284 285 286 286 286 286 286 285
303 304 305 309 311 310 310 311 310 310 309 308 310 317 325 333 340 344 344 343 342 341 340 340 338 336 333 332 332 332 332 331 330 330 330 330 329 330 329 328 327 324 322 320 317 313 310 308 305 303 302 302 300 296 293 290 290 290 291 290 289 287 286 286 286 286 286 285 284 284 282 281 281 281 282 282 283 284 286 287 287 288 288 288 288
299 300 302 305 307 308 310 310 309 308 306 305 306 311 317 324 331 337 340 340 340 339 338 337 336 334 332 331 331 332 331 330 329 329 328 327 328 328 328 328 326 324 323 320 317 314 311 308 306 304 302 301 299 297 294 292 290 289 289 289 288 287 287 287 286 285 285 284 284 283 282 282 283 283 283 283 284 286 287 289 291 292 292 292 290
297 297 298 300 305 309 311 310 309 308 306 304 304 306 312 318 324 331 336 337 336 336 335 335 334 333 332 332 332 331 331 330 328 327 326 327 327 328 327 326 325 324 322 320 318 315 313 310 307 306 305 303 300 297 295 293 290 289 288 288 287 286 286 285 285 285 284 284 283 283 283 283 284 284 285 286 289 291 292 293 294 295 295 293 291
296 294 295 298 302 307 308 308 308 307 305 304 304 305 309 315 320 327 332 333 333 333 333 333 333 332 332 333 334 333 332 329 327 326 327 328 328 327 327 326 325 323 323 322 320 318 317 314 311 310 308 306 303 300 298 296 293 291 289 287 286 285 285 285 285 285 285 284 283 283 283 283 284 286 287 289 291 294 295 296 296 296 295 293 291
294 292 292 295 300 303 304 306 307 306 304 303 304 305 308 312 318 324 328 329 330 331 332 332 332 332 333 335 335 334 332 330 328 327 328 328 327 327 327 326 326 325 324 325 323 322 320 318 316 314 313 310 307 304 302 299 296 294 292 290 288 287 287 287 287 286 286 285 285 285 285 286 287 288 289 290 292 293 294 296 296 296 296 294 292
291 290 290 293 297 300 303 305 306 305 303 303 305 307 308 311 317 321 324 326 327 329 330 331 331 331 332 333 334 333 332 330 329 327 327 327 327 328 328 328 327 326 326 326 325 323 322 320 319 318 316 314 311 308 306 303 300 297 295 293 292 291 290 289 288 288 287 287 287 287 288 288 289 290 291 291 292 293 294 295 295 295 295 294 293
288 288 290 293 297 301 303 305 305 303 303 304 306 308 310 312 316 319 321 323 325 328 329 329 328 328 329 331 331 331 331 331 329 327 326 327 328 329 329 329 328 327 326 326 325 324 322 322 320 319 318 316 314 311 308 306 303 301 298 297 295 294 294 293 292 291 291 290 290 289 290 291 291 292 293 294 295 296 296 296 296 296 295 293 292
285 286 289 293 297 301 303 303 303 302 302 304 306 308 310 312 315 317 319 321 324 326 327 326 326 325 327 329 330 329 330 331 329 327 326 326 327 328 329 328 327 326 325 326 325 324 323 322 321 320 319 317 315 312 309 307 305 303 302 302 301 301 300 299 298 296 295 293 291 291 290 290 291 292 294 296 298 299 300 301 301 300 298 296 293
281 283 287 292 296 299 300 301 301 302 302 304 306 308 310 312 314 316 318 320 322 325 325 324 324 324 326 328 329 329 330 331 329 326 325 325 326 327 328 328 327 326 325 326 326 325 324 322 321 320 319 317 315 312 310 308 307 307 306 306 305 305 304 303 302 299 296 294 292 291 291 291 291 293 294 297 299 301 302 303 303 302 301 299 296
276 279 284 290 294 296 297 299 301 302 304 306 307 309 310 312 314 315 317 319 322 324 324 323 323 324 326 328 329 328 330 331 328 325 324 323 324 327 328 327 327 326 326 327 327 326 324 322 320 319 318 316 314 312 310 309 309 308 308 309 309 309 308 307 304 301 298 295 293 292 293 293 293 295 296 298 300 303 304 304 304 304 304 303 301
274 278 283 288 291 293 296 300 302 304 306 307 308 309 311 312 313 314 317 320 322 323 323 323 324 325 327 328 328 328 330 330 327 324 323 322 324 326 327 327 327 326 326 327 327 325 323 321 320 319 318 315 313 311 310 310 310 310 311 313 313 313 312 310 307 304 300 297 296 295 295 295 296 297 298 298 300 301 302 303 304 305 305 303 302
274 279 283 286 288 291 296 301 305 307 307 307 308 310 310 311 313 315 318 320 322 323 324 324 325 325 326 326 326 327 328 328 326 324 323 322 323 326 327 328 328 328 327 328 327 325 323 321 320 319 317 314 312 311 311 312 313 315 316 316 317 316 314 312 309 306 302 299 298 297 297 297 297 297 297 297 299 300 301 303 303 303 303 302 301
277 280 282 283 286 291 297 302 305 307 308 308 308 308 309 311 314 317 319 321 324 324 324 324 324 324 324 324 325 325 326 326 325 324 322 321 323 326 327 329 329 329 328 328 328 326 324 322 321 319 316 313 310 309 309 311 312 315 317 318 318 318 317 315 312 309 305 302 300 299 299 298 297 296 295 296 297 299 301 301 302 302 302 301 300
281 281 282 284 288 293 297 300 306 311 313 311 309 307 308 312 317 322 324 325 324 323 322 322 323 323 323 322 322 323 324 324 324 323 321 320 323 326 328 330 330 329 329 329 328 327 325 322 321 319 315 311 309 309 309 309 310 312 314 315 316 316 316 315 313 310 307 304 302 300 299 297 296 296 295 296 297 298 299 300 302 303 303 303 302
281 281 283 285 289 294 299 303 310 316 318 314 309 308 310 313 319 324 325 324 322 320 320 322 322 321 320 320 320 321 322 322 323 321 320 320 324 327 329 330 330 329 330 329 328 327 326 323 322 320 316 312 309 309 310 309 308 308 308 309 309 310 310 309 306 304 302 301 300 299 299 298 298 298 299 299 299 300 301 303 304 304 305 304 303
278 280 283 286 291 297 303 306 309 314 316 313 309 308 311 314 319 324 324 321 320 319 320 320 319 317 317 318 318 319 320 321 322 320 319 320 325 328 330 330 329 330 330 330 329 327 326 325 324 321 317 313 310 308 308 308 307 305 304 303 302 302 301 300 299 298 298 299 300 301 301 301 302 303 303 303 303 303 304 305 306 306 306 305 304
277 277 281 286 289 294 301 305 307 311 313 311 308 310 314 317 319 320 319 317 318 318 317 316 314 314 315 316 317 318 319 321 322 319 318 321 326 328 329 329 329 331 332 331 330 328 327 326 326 323 319 314 310 308 307 306 306 305 303 302 301 300 297 296 294 295 296 298 301 302 303 303 303 304 304 304 304 304 305 306 307 307 306 305 305
272 273 278 282 284 291 300 306 309 312 311 309 309 313 317 318 318 316 314 314 315 314 312 311 311 312 314 316 316 318 320 321 320 317 318 323 327 329 328 328 329 332 333 332 330 328 328 328 326 324 321 316 312 309 307 306 307 307 306 306 305 303 300 297 296 295 296 297 299 301 303 304 305 305 306 306 306 306 307 307 307 307 307 306 306
265 269 276 281 288 299 306 309 312 314 312 309 310 314 315 316 315 313 311 311 311 310 308 309 310 312 314 315 316 318 320 320 318 316 319 324 328 328 327 328 331 333 334 334 332 330 329 328 326 324 322 319 315 312 310 309 309 309 308 308 307 305 302 299 298 297 297 298 300 302 305 307 307 307 306 306 306 306 306 307 307 308 308 309 308
259 266 278 290 299 304 305 306 310 313 310 307 309 313 315 316 315 312 310 310 310 310 310 310 311 312 313 314 316 318 319 318 315 316 320 326 329 328 327 329 333 335 336 335 333 331 329 328 326 324 321 318 315 313 310 309 308 307 306 305 304 303 301 300 299 299 299 300 302 303 304 304 304 304 305 306 306 307 308 310 311 311 312 312 312
257 272 285 295 302 302 300 302 306 307 306 307 310 313 315 317 317 316 316 315 314 313 312 312 312 312 313 314 316 317 317 315 313 316 322 328 328 327 328 331 334 336 337 336 334 331 329 328 326 324 321 317 315 313 311 310 309 307 306 305 304 303 302 301 301 301 301 301 302 303 304 304 305 306 308 309 311 312 313 314 315 316 317 318 318
263 281 288 293 298 298 297 301 303 305 307 310 312 314 316 318 320 319 318 317 316 316 315 313 313 313 313 314 315 316 314 311 313 318 324 328 328 327 329 333 336 338 338 336 334 332 330 329 327 324 322 319 317 315 314 314 313 311 310 309 308 306 305 305 305 305 305 306 307 308 309 309 311 313 315 316 316 317 318 319 320 322 324 325 325
268 281 287 291 294 294 294 299 303 305 308 310 312 315 317 319 319 319 319 320 321 320 318 315 313 313 313 313 313 312 310 310 314 320 325 328 327 327 330 335 338 338 338 336 334 332 331 330 327 325 323 321 319 317 315 314 314 314 314 313 313 312 312 311 312 312 312 313 314 315 316 316 318 321 321 321 321 322 323 325 328 331 334 336 338
272 281 287 291 292 291 291 295 299 303 306 308 312 315 317 318 318 319 321 323 324 323 320 316 314 313 312 311 310 309 309 311 315 321 326 327 327 328 332 336 338 339 338 337 335 333 332 330 328 326 324 322 319 318 316 316 316 317 318 318 319 319 319 320 320 320 320 320 321 322 322 324 325 325 324 324 325 327 331 336 341 345 347 347 347
272 281 287 289 289 288 287 290 295 300 303 308 312 314 315 316 317 318 320 322 323 323 320 316 313 311 309 308 308 307 308 311 316 321 326 327 327 329 333 337 339 339 338 337 336 334 333 331 329 327 324 322 320 319 318 318 318 320 321 322 323 324 325 326 326 326 326 327 327 328 328 328 328 328 328 330 333 338 343 349 351 351 350 348 346
268 278 285 287 287 286 286 289 294 298 303 308 311 311 312 314 315 316 319 321 323 322 319 314 311 308 307 306 305 305 308 311 316 322 326 327 328 330 334 338 340 339 339 338 338 336 334 332 330 327 325 323 322 321 320 320 321 322 323 324 326 327 328 329 329 329 330 331 331 330 330 331 331 333 335 339 344 349 353 353 351 348 346 344 346
265 275 282 285 284 284 286 288 292 296 302 305 305 305 307 310 312 316 320 324 324 321 317 313 309 307 305 304 302 304 309 312 317 323 327 328 330 332 336 339 341 340 340 339 339 338 336 334 332 329 327 325 323 322 322 322 323 323 325 326 327 329 330 331 331 331 332 332 330 329 329 333 337 340 344 348 351 352 351 350 348 346 346 348 351
266 274 278 279 279 279 281 284 289 294 297 297 299 302 305 308 314 320 325 326 324 321 316 312 308 305 302 300 301 305 309 313 318 325 330 331 333 336 338 341 342 342 341 341 341 340 339 336 334 331 329 326 325 324 323 323 323 324 325 327 328 329 330 331 332 332 332 329 326 325 327 334 341 346 350 352 350 348 346 346 346 348 351 353 353
269 271 270 269 269 271 274 278 283 288 290 292 295 301 306 312 320 327 330 328 325 321 316 311 307 303 298 296 301 307 310 313 320 328 333 335 337 340 342 342 343 343 343 342 342 342 341 339 336 333 331 329 327 326 324 324 324 325 325 327 328 329 330 331 332 332 330 326 323 321 325 333 343 349 350 348 346 343 342 344 346 347 348 348 346
265 261 256 254 257 262 269 273 278 284 289 292 295 299 307 319 328 332 332 331 328 323 317 311 305 298 294 296 302 307 309 313 322 331 335 338 340 343 345 344 344 345 345 344 344 343 342 340 337 335 333 332 330 328 326 325 325 325 326 327 328 329 330 331 330 329 328 324 320 319 324 335 347 350 348 343 341 339 339 340 341 342 341 341 340
254 251 248 251 257 265 272 276 279 284 290 294 297 300 308 321 330 334 334 334 332 326 319 311 302 294 292 297 302 306 309 314 323 329 333 336 340 344 346 346 345 345 346 345 344 343 342 340 338 337 336 334 332 330 328 326 325 325 325 326 327 328 329 329 327 325 324 323 319 319 327 343 349 347 343 340 337 335 333 334 336 338 339 339 338
250 252 256 261 267 273 278 280 282 286 290 294 299 306 313 320 327 333 336 336 334 329 322 311 300 293 292 296 302 306 308 313 320 325 327 330 335 340 344 345 345 346 346 345 344 343 342 341 339 338 338 336 333 331 329 327 325 325 325 326 327 327 326 326 325 323 322 321 319 320 334 347 345 340 337 336 334 333 332 333 336 337 338 338 338
251 258 264 270 274 277 280 283 284 287 292 295 299 308 317 320 324 330 334 335 334 331 323 312 301 293 292 295 300 303 305 309 316 320 321 324 330 336 340 342 344 345 346 345 344 343 342 341 339 339 338 336 334 331 329 327 326 325 325 325 326 325 325 325 324 322 321 321 320 324 334 338 334 333 334 335 334 333 332 332 334 336 336 336 336
251 258 263 269 274 276 279 284 286 288 294 298 301 307 316 321 323 326 331 334 335 332 325 315 304 295 292 293 297 299 301 305 310 314 316 319 326 332 337 340 342 344 344 345 344 342 341 340 340 339 338 337 334 331 329 328 327 326 325 324 324 324 325 325 325 324 323 320 317 315 319 324 327 331 334 334 332 330 329 331 333 335 335 335 334
250 256 260 264 271 275 278 284 288 290 294 299 302 305 311 319 323 325 328 330 332 332 327 318 308 298 292 291 293 296 298 301 305 309 311 316 323 329 334 337 340 342 343 343 343 341 340 339 339 339 338 337 335 332 330 328 328 327 326 325 325 326 327 327 327 325 323 319 314 310 312 318 325 329 330 329 328 328 330 332 333 335 335 334 333
248 254 257 261 267 274 280 286 289 290 293 299 304 306 308 314 320 324 327 329 329 329 328 322 312 302 293 290 290 293 297 299 302 305 309 314 320 326 331 334 338 340 340 341 341 340 339 338 338 339 338 337 335 333 331 330 330 330 329 329 330 331 331 328 326 325 324 322 319 317 317 320 323 325 326 326 328 329 331 332 333 333 333 333 332
247 252 256 258 262 268 278 286 290 289 291 296 302 305 309 312 315 318 322 326 327 326 326 323 316 306 296 291 289 291 295 298 301 304 307 313 318 323 327 332 335 337 338 338 339 339 338 337 337 338 338 338 336 334 332 332 332 333 334 335 336 334 332 328 327 327 328 326 324 322 321 321 321 323 325 327 328 329 330 330 330 330 330 330 330
246 251 255 259 262 265 272 281 287 289 292 295 298 301 305 311 314 314 316 320 323 323 323 322 317 309 299 292 289 290 292 295 299 302 306 311 316 320 324 329 333 335 336 336 336 337 337 336 336 337 338 338 337 335 334 334 334 336 337 338 337 335 332 329 328 327 326 326 324 323 321 321 322 323 325 326 326 327 327 326 327 327 326 327 327
245 250 254 259 264 266 270 275 281 286 291 295 298 300 302 306 310 312 315 318 320 321 320 319 317 311 302 293 289 289 290 292 296 300 304 308 313 317 322 326 331 333 334 333 334 335 335 334 334 336 337 337 336 335 335 334 335 336 338 338 338 337 335 332 330 327 326 325 324 322 322 323 323 324 324 324 324 324 324 323 323 323 323 323 324
244 249 253 259 264 267 269 272 277 283 288 292 295 298 301 304 307 310 313 317 319 318 318 317 316 312 304 295 289 287 288 290 292 296 300 304 309 314 319 323 327 330 331 331 331 332 333 332 332 333 335 335 335 335 335 335 336 337 338 339 339 340 339 337 335 333 330 327 326 324 324 323 323 323 322 322 322 322 321 321 321 321 321 321 321
245 249 253 258 263 266 268 270 275 280 285 290 293 295 298 303 306 309 312 316 317 316 316 315 314 312 305 296 288 285 285 286 289 292 296 300 306 311 316 320 324 327 328 328 328 330 331 330 330 330 332 333 333 334 334 335 335 337 338 339 340 339 339 337 334 331 329 327 325 323 321 320 319 319 319 319 319 319 319 319 319 319 320 320 320
246 250 253 257 262 265 266 269 273 277 282 286 290 293 296 300 304 308 312 314 315 314 314 314 313 311 306 297 289 284 283 284 286 289 292 297 303 308 313 316 320 324 325 325 325 327 328 327 326 327 329 330 331 331 332 332 333 333 334 335 335 334 333 331 329 327 325 324 322 320 319 317 315 315 314 315 315 315 315 316 317 317 318 318 318
246 250 254 257 260 263 265 268 272 275 279 283 287 290 293 297 301 306 311 312 312 312 313 313 311 309 304 297 289 284 282 282 284 286 289 294 300 306 310 313 316 320 322 321 321 323 325 324 323 323 325 326 327 328 328 328 329 330 330 330 330 329 327 326 325 324 322 322 320 319 317 316 315 314 314 314 313 314 314 315 315 316 316 316 316
Height
10967 10966 10966 10965 10964 10963 10962 10960 10959 10957 10956 10954 10952 10951 10949 10947 10945 10944 10942 10940 10939 10937 10935 10933 10931 10930 10928 10927 10925 10923 10921 10919 10916 10913 10910 10907 10904 10902 10900 10898 10897 10897 10895 10891 10888 10887 10884 10881 10879 10877 10876 10875 10875 10876 10876 10877 10876 10874 10872 10871 10871 10871 10869 10868 10867 10863 10855 10852 10853 10852 10851 10853 10855 10855 10854 10854 10854 10855 10856 10855 10854 10852 10850 10849 10847
10966 10965 10964 10963 10962 10961 10960 10959 10957 10956 10955 10953 10951 10950 10948 10946 10944 10943 10941 10939 10937 10935 10933 10931 10930 10928 10926 10925 10923 10920 10917 10914 10911 10908 10905 10903 10901 10899 10897 10895 10892 10891 10890 10888 10885 10883 10881 10878 10874 10871 10869 10867 10865 10864 10865 10867 10868 10867 10866 10865 10864 10863 10862 10860 10858 10857 10853 10846 10844 10843 10844 10844 10845 10846 10846 10845 10844 10844 10845 10845 10846 10846 10845 10843 10841
10964 10964 10963 10961 10961 10960 10958 10957 10956 10954 10953 10952 10950 10949 10947 10946 10944 10942 10940 10938 10936 10934 10932 10930 10928 10926 10924 10922 10919 10916 10913 10910 10907 10905 10902 10900 10898 10896 10894 10891 10889 10886 10884 10882 10881 10879 10877 10874 10871 10868 10864 10862 10859 10857 10856 10856 10857 10858 10857 10857 10856 10855 10854 10853 10851 10850 10848 10843 10836 10834 10837 10838 10837 10838 10839 10838 10836 10835 10835 10836 10836 10836 10837 10836 10835
10963 10962 10961 10960 10959 10958 10956 10955 10954 10953 10952 10950 10949 10948 10947 10945 10943 10941 10939 10937 10935 10933 10931 10929 10926 10924 10922 10919 10916 10913 10910 10908 10905 10903 10900 10898 10895 10892 10890 10887 10884 10881 10878 10875 10873 10871 10870 10868 10867 10864 10861 10857 10854 10852 10851 10850 10849 10849 10849 10848 10848 10847 10846 10847 10846 10844 10843 10839 10832 10828 10830 10832 10832 10832 10831 10830 10829 10828 10827 10827 10827 10827 10827 10827 10827
10961 10960 10959 10958 10957 10956 10954 10953 10952 10951 10950 10949 10948 10947 10946 10944 10942 10940 10938 10936 10934 10931 10929 10927 10924 10922 10919 10917 10914 10912 10909 10906 10903 10901 10898 10895 10892 10889 10886 10883 10880 10877 10873 10870 10867 10864 10862 10860 10859 10857 10855 10852 10849 10846 10844 10843 10843 10843 10842 10841 10840 10839 10838 10839 10839 10838 10836 10834 10829 10825 10825 10826 10826 10825 10824 10822 10822 10820 10819 10818 10818 10818 10819 10819 10819
10959 10958 10957 10956 10955 10954 10953 10952 10951 10950 10949 10948 10947 10946 10944 10942 10940 10939 10937 10935 10932 10930 10927 10924 10922 10919 10917 10915 10912 10910 10907 10904 10901 10898 10895 10892 10888 10885 10882 10879 10876 10873 10869 10865 10861 10858 10855 10852 10851 10849 10847 10845 10842 10839 10836 10835 10835 10836 10835 10834 10833 10832 10831 10830 10830 10829 10828 10826 10824 10822 10820 10819 10818 10817 10816 10815 10814 10813 10812 10811 10810 10810 10811 10811 10811
10956 10955 10955 10954 10953 10952 10951 10951 10950 10949 10948 10947 10945 10944 10942 10941 10939 10937 10935 10933 10930 10927 10925 10922 10920 10917 10915 10913 10910 10907 10904 10901 10898 10895 10891 10888 10885 10881 10878 10875 10872 10868 10865 10860 10856 10852 10849 10846 10843 10841 10840 10837 10835 10833 10830 10827 10827 10826 10826 10826 10826 10825 10824 10822 10821 10820 10819 10818 10817 10816 10815 10814 10812 10810 10809 10808 10807 10806 10805 10804 10804 10803 10802 10802 10803
10954 10953 10953 10952 10951 10951 10950 10949 10948 10947 10946 10945 10943 10942 10941 10939 10937 10935 10933 10930 10928 10925 10922 10920 10917 10915 10913 10910 10907 10904 10901 10898 10894 10891 10887 10884 10881 10878 10874 10871 10868 10864 10860 10856 10851 10847 10843 10840 10837 10835 10832 10830 10828 10826 10824 10821 10819 10818 10818 10818 10818 10817 10816 10814 10813 10812 10812 10811 10810 10809 10808 10807 10805 10804 10803 10801 10800 10799 10798 10798 10798 10796 10795 10795 10795
10952 10952 10951 10951 10950 10949 10949 10947 10946 10945 10944 10943 10942 10940 10939 10937 10935 10932 10930 10928 10925 10923 10920 10918 10915 10913 10910 10907 10904 10900 10897 10894 10890 10887 10883 10880 10877 10874 10870 10867 10863 10859 10855 10851 10847 10843 10839 10835 10832 10829 10826 10823 10821 10819 10817 10816 10814 10812 10811 10811 10809 10808 10807 10807 10806 10805 10804 10803 10802 10801 10800 10799 10799 10798 10797 10796 10794 10794 10793 10792 10791 10791 10790 10789 10789
10950 10950 10950 10949 10949 10948 10947 10945 10944 10943 10942 10941 10940 10938 10937 10935 10932 10930 10927 10925 10923 10920 10918 10915 10913 10910 10907 10904 10900 10897 10893 10890 10887 10883 10879 10876 10872 10869 10866 10862 10859 10855 10850 10846 10842 10838 10835 10831 10828 10825 10821 10818 10815 10813 10812 10810 10809 10807 10806 10804 10803 10801 10801 10800 10799 10798 10798 10797 10796 10795 10794 10793 10793 10792 10791 10790 10789 10788 10788 10786 10785 10784 10784 10783 10782
10949 10948 10948 10948 10947 10946 10944 10943 10942 10941 10940 10939 10937 10936 10934 10932 10930 10927 10925 10923 10920 10918 10915 10913 10910 10907 10903 10900 10896 10893 10889 10886 10883 10879 10875 10871 10868 10864 10861 10857 10854 10850 10846 10841 10837 10833 10830 10826 10823 10820 10816 10813 10809 10807 10806 10805 10803 10802 10800 10799 10798 10796 10795 10794 10793 10792 10792 10791 10790 10790 10789 10788 10787 10786 10785 10784 10783 10782 10781 10781 10780 10779 10778 10777 10776
10947 10947 10946 10945 10944 10943 10942 10941 10940 10939 10938 10936 10935 10933 10932 10930 10927 10925 10922 10920 10918 10915 10913 10910 10907 10903 10900 10896 10893 10889 10886 10883 10879 10875 10871 10867 10863 10859 10856 10852 10848 10844 10841 10836 10831 10827 10824 10820 10817 10814 10811 10808 10805 10802 10800 10799 10798 10796 10795 10794 10793 10791 10790 10789 10788 10787 10787 10786 10786 10785 10784 10783 10782 10781 10780 10779 10778 10777 10776 10775 10774 10774 10773 10771 10770
10945 10944 10944 10943 10942 10941 10940 10939 10938 10937 10936 10934 10932 10931 10929 10927 10925 10922 10920 10917 10915 10913 10910 10907 10903 10900 10897 10893 10889 10886 10883 10880 10875 10871 10867 10862 10858 10854 10850 10847 10842 10838 10834 10831 10826 10822 10818 10815 10812 10808 10805 10803 10800 10798 10796 10794 10792 10791 10790 10789 10788 10786 10786 10785 10784 10783 10782 10781 10781 10780 10779 10778 10777 10777 10776 10775 10774 10773 10772 10771 10770 10769 10768 10767 10766
10941 10941 10940 10940 10939 10938 10938 10937 10936 10935 10933 10931 10930 10928 10927 10925 10922 10919 10917 10915 10912 10910 10907 10904 10900 10897 10894 10890 10887 10884 10880 10876 10872 10867 10863 10858 10853 10849 10845 10841 10836 10832 10828 10825 10821 10817 10814 10810 10807 10803 10800 10798 10795 10793 10791 10789 10788 10786 10785 10784 10783 10782 10781 10780 10779 10778 10778 10777 10776 10775 10774 10773 10773 10772 10771 10771 10770 10769 10768 10767 10766 10765 10764 10763 10762
10937 10937 10937 10937 10936 10936 10935 10934 10933 10932 10930 10929 10927 10926 10924 10922 10919 10917 10914 10912 10909 10906 10903 10900 10897 10894 10891 10887 10884 10880 10876 10872 10868 10863 10859 10854 10849 10844 10840 10836 10831 10827 10824 10820 10817 10813 10809 10806 10802 10799 10796 10793 10791 10788 10786 10785 10783 10781 10780 10779 10778 10777 10776 10776 10775 10774 10774 10773 10772 10771 10770 10769 10769 10768 10767 10767 10766 10765 10764 10763 10762 10761 10760 10759 10759
10933 10933 10933 10933 10933 10933 10932 10931 10930 10929 10928 10926 10925 10923 10921 10918 10916 10913 10911 10908 10906 10903 10900 10897 10894 10891 10887 10884 10880 10876 10873 10868 10864 10860 10855 10850 10845 10840 10836 10832 10828 10823 10820 10816 10813 10809 10805 10802 10798 10795 10792 10789 10787 10785 10782 10781 10779 10778 10776 10775 10774 10773 10772 10772 10771 10770 10770 10769 10768 10768 10767 10766 10765 10764 10763 10763 10762 10761 10760 10759 10758 10757 10756 10755 10754
10927 10928 10928 10929 10929 10929 10928 10927 10927 10926 10925 10923 10922 10920 10918 10915 10913 10910 10907 10904 10902 10899 10896 10893 10890 10887 10883 10880 10876 10872 10869 10865 10861 10856 10852 10847 10842 10837 10833 10829 10824 10820 10816 10812 10808 10805 10801 10798 10794 10791 10788 10785 10783 10781 10779 10777 10776 10774 10773 10772 10771 10770 10769 10768 10768 10767 10767 10766 10765 10765 10764 10763 10762 10761 10760 10759 10758 10757 10756 10755 10754 10753 10752 10751 10750
10922 10923 10924 10924 10924 10924 10924 10924 10923 10922 10922 10920 10919 10917 10914 10912 10909 10906 10903 10900 10898 10895 10892 10889 10886 10883 10879 10876 10872 10869 10865 10862 10858 10853 10849 10844 10839 10834 10830 10826 10821 10817 10813 10809 10805 10801 10797 10794 10791 10788 10785 10782 10780 10778 10776 10774 10773 10771 10770 10769 10768 10767 10766 10766 10765 10765 10764 10763 10763 10762 10761 10760 10759 10758 10757 10756 10755 10754 10753 10751 10750 10749 10747 10746 10745
10917 10919 10919 10919 10919 10919 10920 10920 10920 10919 10919 10917 10916 10914 10911 10908 10906 10903 10900 10896 10893 10891 10888 10885 10882 10878 10875 10871 10868 10865 10862 10859 10854 10850 10846 10841 10836 10832 10827 10823 10819 10814 10810 10806 10802 10797 10794 10791 10788 10785 10782 10780 10777 10775 10773 10772 10770 10769 10768 10766 10765 10764 10764 10763 10763 10762 10761 10761 10760 10759 10758 10757 10756 10755 10754 10752 10752 10751 10750 10748 10746 10745 10743 10742 10741
10914 10915 10915 10915 10915 10916 10916 10916 10916 10916 10915 10913 10912 10910 10907 10905 10902 10899 10896 10893 10889 10886 10883 10880 10877 10874 10870 10867 10864 10861 10858 10855 10851 10847 10843 10838 10834 10829 10824 10820 10816 10811 10807 10803 10799 10795 10791 10788 10785 10782 10779 10777 10775 10773 10771 10769 10767 10766 10765 10764 10763 10762 10761 10760 10760 10759 10759 10758 10757 10756 10755 10754 10753 10752 10751 10749 10748 10747 10746 10744 10743 10741 10739 10738 10736
10912 10912 10912 10911 10911 10912 10912 10912 10911 10911 10910 10909 10907 10906 10903 10901 10898 10895 10892 10889 10885 10882 10879 10876 10874 10870 10867 10863 10860 10857 10855 10852 10848 10845 10841 10836 10831 10827 10822 10817 10813 10808 10804 10800 10797 10792 10788 10785 10782 10779 10777 10774 10772 10770 10768 10766 10765 10763 10762 10761 10760 10759 10758 10758 10757 10756 10756 10755 10754 10753 10752 10751 10750 10749 10748 10746 10745 10743 10742 10740 10739 10737 10735 10734 10732
10910 10909 10908 10908 10907 10908 10907 10907 10907 10906 10906 10904 10902 10900 10899 10897 10894 10892 10888 10885 10881 10878 10875 10872 10870 10866 10863 10860 10856 10854 10851 10848 10845 10841 10838 10834 10830 10825 10820 10815 10811 10806 10801 10797 10794 10790 10786 10782 10779 10777 10774 10772 10770 10768 10766 10764 10763 10761 10760 10758 10757 10757 10756 10755 10754 10754 10753 10753 10752 10751 10750 10749 10748 10746 10745 10744 10742 10740 10738 10736 10735 10733 10731 10729 10727
10907 10906 10904 10904 10904 10904 10903 10903 10903 10903 10901 10900 10898 10896 10894 10892 10890 10887 10884 10881 10878 10875 10872 10869 10866 10863 10859 10856 10853 10850 10848 10845 10841 10838 10835 10832 10828 10823 10818 10813 10808 10804 10799 10794 10791 10787 10784 10780 10777 10775 10772 10770 10768 10766 10764 10762 10760 10759 10757 10756 10755 10754 10753 10753 10752 10751 10751 10750 10749 10748 10747 10746 10745 10744 10742 10740 10738 10737 10735 10733 10730 10728 10726 10724 10722
10902 10901 10901 10901 10901 10901 10900 10900 10900 10899 10898 10896 10895 10894 10893 10890 10887 10884 10881 10878 10874 10871 10868 10865 10862 10859 10856 10853 10850 10847 10844 10841 10838 10835 10832 10829 10825 10820 10816 10811 10807 10801 10796 10792 10788 10784 10781 10778 10775 10772 10770 10768 10765 10763 10761 10760 10758 10756 10755 10753 10752 10751 10750 10750 10749 10749 10748 10747 10746 10745 10744 10742 10741 10740 10738 10736 10735 10733 10731 10728 10726 10724 10722 10720 10717
10898 10898 10898 10899 10898 10898 10898 10897 10897 10897 10895 10893 10892 10891 10891 10888 10884 10880 10877 10874 10871 10868 10865 10862 10859 10856 10853 10850 10847 10844 10841 10838 10834 10832 10829 10826 10822 10817 10813 10809 10805 10800 10794 10790 10786 10782 10779 10776 10773 10770 10768 10766 10763 10761 10759 10757 10755 10753 10752 10750 10749 10748 10747 10747 10746 10745 10744 10743 10742 10741 10740 10738 10737 10735 10734 10732 10730 10728 10726 10724 10722 10719 10717 10714 10712
10894 10895 10895 10895 10896 10895 10895 10894 10894 10894 10893 10891 10889 10888 10887 10885 10881 10878 10875 10872 10868 10865 10862 10859 10856 10853 10849 10846 10843 10841 10837 10834 10831 10829 10827 10824 10819 10815 10811 10807 10802 10797 10793 10788 10784 10780 10776 10773 10771 10768 10766 10763 10761 10759 10756 10754 10752 10751 10749 10747 10746 10745 10744 10743 10742 10741 10740 10739 10738 10737 10736 10734 10733 10731 10729 10728 10726 10724 10722 10719 10717 10714 10712 10710 10708
10889 10891 10891 10892 10892 10892 10891 10891 10892 10892 10890 10888 10886 10886 10885 10882 10879 10875 10872 10869 10866 10862 10860 10856 10853 10849 10846 10843 10840 10837 10834 10831 10829 10827 10824 10821 10817 10813 10809 10805 10800 10795 10790 10786 10782 10778 10774 10771 10768 10766 10763 10761 10758 10756 10754 10752 10750 10748 10746 10744 10743 10742 10741 10740 10739 10737 10736 10735 10734 10733 10731 10730 10728 10726 10725 10723 10721 10719 10717 10714 10712 10710 10708 10706 10704
10888 10888 10889 10889 10888 10888 10888 10888 10888 10889 10888 10886 10883 10883 10882 10880 10876 10872 10869 10866 10863 10860 10857 10853 10849 10846 10842 10840 10837 10834 10831 10829 10827 10824 10821 10818 10814 10811 10807 10802 10797 10792 10788 10784 10780 10776 10773 10769 10766 10763 10761 10758 10756 10753 10751 10749 10747 10745 10743 10741 10739 10738 10737 10736 10735 10733 10732 10731 10729 10728 10727 10725 10723 10721 10720 10718 10716 10714 10712 10710 10708 10706 10704 10703 10701
10886 10885 10886 10886 10885 10885 10884 10884 10884 10885 10885 10883 10881 10880 10879 10877 10873 10870 10867 10864 10861 10858 10854 10849 10845 10842 10839 10836 10833 10831 10828 10826 10825 10822 10819 10815 10812 10808 10804 10799 10795 10790 10786 10781 10778 10774 10771 10767 10764 10761 10759 10756 10754 10751 10749 10746 10744 10742 10740 10738 10736 10734 10733 10731 10730 10729 10727 10726 10724 10723 10722 10720 10718 10717 10715 10713 10711 10710 10708 10707 10705 10703 10702 10700 10698
10884 10883 10883 10883 10882 10882 10881 10880 10880 10880 10880 10879 10878 10878 10877 10875 10871 10867 10864 10861 10858 10854 10850 10845 10841 10838 10835 10832 10830 10828 10826 10824 10822 10820 10816 10813 10810 10806 10802 10797 10792 10787 10783 10779 10776 10772 10769 10765 10762 10759 10757 10754 10751 10748 10746 10744 10741 10739 10736 10734 10732 10731 10729 10728 10726 10724 10723 10721 10720 10719 10717 10715 10714 10712 10711 10710 10708 10707 10705 10704 10702 10701 10699 10698 10697
10880 10880 10880 10880 10880 10879 10878 10877 10876 10876 10876 10875 10875 10875 10874 10871 10868 10865 10862 10858 10855 10851 10846 10841 10837 10833 10831 10829 10827 10825 10823 10822 10820 10817 10814 10811 10808 10804 10799 10794 10789 10785 10781 10777 10774 10770 10767 10763 10760 10757 10754 10751 10749 10746 10743 10740 10738 10735 10733 10731 10729 10727 10726 10724 10723 10721 10719 10718 10716 10715 10713 10712 10711 10710 10708 10707 10705 10704 10703 10702 10700 10699 10698 10696 10695
10876 10877 10878 10878 10876 10875 10874 10874 10873 10873 10873 10872 10871 10871 10870 10868 10865 10862 10859 10855 10851 10846 10841 10837 10833 10829 10827 10825 10823 10822 10821 10819 10817 10814 10811 10808 10805 10802 10797 10792 10787 10783 10779 10775 10771 10768 10764 10761 10758 10755 10752 10749 10746 10743 10741 10738 10735 10732 10730 10727 10725 10724 10722 10720 10719 10718 10717 10715 10714 10712 10711 10709 10708 10707 10706 10705 10703 10702 10701 10700 10699 10697 10696 10695 10693
10873 10874 10875 10875 10873 10871 10871 10871 10871 10871 10870 10869 10869 10868 10867 10864 10862 10858 10855 10851 10847 10842 10837 10832 10829 10826 10824 10822 10820 10819 10818 10817 10815 10812 10809 10806 10803 10799 10795 10790 10785 10781 10777 10773 10769 10765 10762 10758 10755 10752 10750 10747 10744 10741 10738 10735 10732 10730 10728 10725 10723 10721 10719 10717 10716 10714 10713 10712 10711 10710 10709 10707 10706 10705 10704 10703 10702 10700 10699 10698 10697 10696 10695 10693 10692
10870 10871 10872 10871 10869 10868 10868 10867 10867 10867 10867 10866 10866 10865 10863 10861 10858 10854 10851 10847 10842 10837 10832 10828 10826 10824 10821 10820 10818 10817 10816 10814 10812 10809 10807 10804 10801 10797 10793 10788 10783 10779 10775 10771 10767 10763 10760 10756 10753 10750 10747 10745 10742 10739 10736 10733 10730 10728 10725 10723 10721 10719 10718 10716 10714 10712 10710 10709 10708 10707 10706 10705 10704 10703 10702 10701 10700 10699 10698 10697 10696 10695 10694 10692 10691
10866 10867 10867 10866 10865 10864 10864 10863 10863 10863 10863 10863 10863 10862 10860 10857 10854 10851 10847 10842 10837 10831 10827 10824 10822 10820 10819 10817 10816 10815 10813 10812 10809 10807 10804 10801 10798 10795 10790 10786 10781 10777 10773 10769 10765 10761 10758 10754 10751 10748 10745 10742 10740 10737 10734 10731 10728 10725 10723 10721 10719 10717 10716 10714 10712 10710 10709 10707 10706 10704 10703 10703 10702 10701 10700 10699 10698 10697 10697 10696 10695 10694 10693 10691 10690
10861 10862 10862 10861 10860 10860 10860 10859 10859 10859 10859 10859 10859 10858 10856 10854 10851 10848 10843 10837 10832 10827 10823 10821 10819 10817 10816 10815 10814 10812 10811 10809 10807 10804 10802 10799 10796 10792 10788 10784 10780 10775 10771 10767 10763 10759 10756 10752 10749 10746 10743 10740 10738 10735 10732 10729 10726 10724 10721 10719 10717 10715 10713 10712 10711 10709 10707 10706 10705 10703 10702 10701 10700 10699 10698 10698 10697 10696 10695 10694 10693 10692 10691 10690 10689
10855 10856 10856 10855 10856 10856 10856 10855 10855 10856 10856 10856 10855 10854 10852 10850 10847 10843 10838 10833 10827 10823 10820 10818 10817 10815 10814 10813 10812 10810 10808 10806 10804 10802 10800 10797 10794 10790 10785 10781 10778 10774 10769 10765 10760 10757 10754 10750 10747 10744 10742 10739 10736 10733 10730 10727 10724 10722 10719 10717 10715 10713 10711 10710 10708 10707 10706 10705 10703 10702 10701 10699 10699 10698 10697 10696 10696 10695 10694 10693 10692 10691 10690 10689 10687
10851 10851 10851 10851 10852 10852 10852 10852 10852 10853 10853 10852 10851 10849 10848 10846 10843 10839 10833 10828 10824 10820 10818 10816 10814 10813 10812 10811 10810 10808 10806 10804 10801 10800 10798 10795 10791 10787 10783 10779 10775 10772 10767 10763 10759 10755 10751 10749 10746 10743 10740 10737 10734 10731 10728 10725 10722 10720 10718 10715 10713 10711 10710 10708 10706 10705 10704 10703 10702 10700 10699 10698 10698 10697 10696 10695 10694 10694 10693 10692 10691 10690 10688 10687 10686
10846 10847 10847 10848 10848 10848 10849 10849 10849 10849 10849 10848 10846 10845 10843 10841 10838 10834 10829 10824 10821 10818 10816 10814 10812 10812 10811 10810 10808 10806 10804 10801 10799 10797 10795 10793 10789 10785 10781 10777 10773 10769 10765 10761 10757 10753 10750 10746 10744 10741 10738 10735 10732 10729 10726 10723 10720 10718 10716 10714 10712 10710 10708 10706 10705 10703 10702 10702 10700 10699 10698 10697 10697 10696 10695 10694 10693 10692 10691 10690 10689 10688 10687 10685 10684
10842 10843 10843 10843 10844 10844 10844 10844 10845 10845 10845 10844 10842 10840 10838 10836 10834 10830 10825 10821 10818 10815 10814 10812 10811 10810 10809 10808 10806 10804 10801 10799 10797 10795 10792 10790 10787 10783 10779 10775 10771 10767 10763 10759 10755 10751 10748 10745 10741 10738 10735 10732 10730 10727 10724 10722 10719 10716 10714 10712 10710 10708 10706 10705 10703 10702 10701 10700 10699 10698 10697 10696 10696 10695 10694 10693 10692 10691 10690 10689 10688 10686 10685 10684 10682
10838 10839 10839 10839 10839 10840 10840 10840 10841 10841 10840 10839 10837 10836 10834 10832 10829 10826 10822 10819 10816 10814 10812 10811 10810 10809 10807 10806 10804 10801 10799 10797 10794 10792 10790 10787 10784 10781 10777 10773 10769 10765 10761 10757 10753 10749 10746 10743 10740 10736 10733 10730 10728 10725 10723 10720 10718 10715 10712 10710 10708 10706 10705 10703 10702 10701 10699 10698 10698 10697 10696 10695 10695 10694 10693 10692 10691 10690 10688 10687 10686 10685 10683 10682 10680
10834 10834 10835 10835 10835 10836 10837 10837 10837 10836 10836 10834 10833 10832 10830 10827 10825 10822 10819 10816 10814 10812 10810 10809 10808 10806 10805 10803 10801 10799 10796 10794 10792 10790 10787 10785 10782 10778 10775 10771 10767 10763 10759 10755 10751 10747 10744 10741 10738 10735 10731 10728 10726 10723 10721 10719 10716 10714 10711 10709 10707 10705 10703 10702 10701 10699 10698 10697 10697 10696 10695 10694 10694 10693 10692 10691 10689 10688 10687 10686 10684 10683 10681 10680 10678
10828 10829 10830 10831 10832 10832 10833 10833 10832 10832 10831 10830 10828 10827 10826 10824 10821 10819 10816 10814 10812 10810 10809 10807 10806 10804 10802 10800 10798 10796 10793 10791 10789 10787 10784 10782 10779 10776 10772 10769 10765 10761 10757 10754 10750 10746 10743 10739 10736 10733 10730 10727 10724 10722 10720 10717 10715 10712 10710 10708 10705 10704 10702 10701 10699 10698 10697 10696 10696 10695 10694 10693 10693 10691 10690 10689 10688 10687 10686 10684 10682 10681 10679 10677 10675
10823 10824 10825 10827 10828 10828 10828 10829 10828 10827 10827 10826 10823 10822 10821 10820 10818 10815 10814 10811 10809 10808 10807 10805 10803 10801 10799 10797 10795 10792 10790 10788 10786 10783 10781 10779 10776 10773 10770 10766 10763 10759 10755 10752 10748 10745 10742 10738 10735 10732 10729 10726 10723 10720 10718 10716 10714 10711 10709 10707 10705 10703 10701 10700 10699 10698 10697 10696 10695 10694 10693 10692 10691 10690 10689 10688 10687 10685 10684 10682 10680 10679 10677 10675 10673
10818 10819 10820 10821 10823 10824 10824 10824 10823 10822 10822 10822 10820 10817 10817 10816 10814 10812 10811 10809 10807 10806 10804 10802 10799 10797 10795 10793 10791 10789 10786 10784 10782 10780 10778 10775 10772 10770 10767 10764 10760 10757 10753 10750 10747 10743 10740 10737 10734 10731 10728 10725 10722 10719 10717 10714 10712 10710 10708 10706 10704 10702 10700 10699 10698 10697 10696 10695 10694 10693 10692 10691 10689 10688 10687 10686 10685 10683 10682 10680 10678 10676 10674 10672 10670
10812 10813 10814 10816 10818 10819 10819 10819 10819 10817 10816 10817 10815 10813 10812 10812 10810 10808 10807 10807 10805 10803 10801 10798 10796 10794 10791 10789 10787 10785 10783 10780 10778 10776 10774 10772 10769 10767 10764 10761 10758 10755 10751 10748 10745 10742 10739 10735 10732 10729 10726 10723 10721 10718 10716 10713 10711 10709 10707 10705 10703 10701 10700 10698 10697 10696 10695 10694 10692 10691 10690 10689 10688 10686 10685 10684 10682 10681 10679 10678 10676 10674 10672 10670 10667
10806 10807 10808 10810 10813 10814 10814 10814 10814 10812 10811 10811 10810 10808 10807 10807 10806 10804 10803 10802 10801 10799 10797 10795 10792 10790 10787 10784 10782 10781 10779 10776 10775 10773 10771 10769 10766 10764 10761 10758 10755 10752 10749 10746 10743 10740 10737 10734 10731 10728 10725 10722 10720 10717 10715 10713 10710 10708 10706 10704 10702 10700 10699 10697 10696 10695 10693 10692 10691 10690 10689 10687 10686 10685 10683 10682 10680 10679 10677 10675 10673 10671 10669 10666 10664
10800 10802 10803 10805 10807 10809 10809 10809 10808 10807 10805 10805 10805 10803 10802 10801 10801 10800 10799 10798 10797 10795 10793 10791 10788 10785 10782 10779 10777 10776 10774 10772 10770 10768 10766 10765 10763 10760 10758 10755 10752 10750 10747 10744 10741 10738 10735 10732 10729 10727 10724 10721 10719 10717 10714 10712 10710 10708 10705 10704 10702 10700 10698 10697 10695 10694 10693 10691 10690 10689 10687 10686 10684 10683 10681 10679 10678 10676 10674 10672 10670 10667 10665 10663 10660
10795 10796 10798 10800 10801 10803 10803 10803 10803 10802 10800 10799 10799 10799 10797 10796 10796 10795 10795 10794 10793 10791 10789 10786 10783 10780 10777 10774 10772 10770 10769 10768 10766 10764 10762 10760 10759 10757 10754 10752 10749 10746 10744 10741 10739 10736 10733 10730 10728 10725 10722 10720 10718 10715 10713 10711 10709 10707 10705 10703 10701 10700 10698 10696 10695 10693 10692 10690 10689 10687 10686 10684 10683 10681 10679 10677 10675 10673 10670 10668 10666 10663 10661 10658 10655
10789 10791 10792 10794 10796 10797 10798 10797 10797 10797 10796 10794 10794 10793 10793 10792 10791 10791 10790 10789 10788 10786 10783 10781 10778 10775 10772 10769 10767 10765 10764 10762 10761 10760 10758 10756 10754 10752 10750 10748 10746 10743 10741 10738 10736 10733 10731 10728 10726 10724 10721 10719 10716 10714 10712 10710 10708 10706 10704 10702 10701 10699 10697 10696 10694 10692 10691 10689 10688 10686 10684 10682 10680 10679 10677 10674 10672 10670 10667 10664 10662 10659 10656 10653 10650
10783 10785 10786 10788 10789 10791 10791 10791 10791 10791 10790 10789 10788 10788 10788 10787 10787 10787 10786 10785 10783 10781 10778 10775 10772 10769 10766 10763 10761 10759 10758 10757 10756 10755 10754 10752 10750 10748 10746 10744 10742 10740 10738 10736 10733 10731 10728 10726 10724 10722 10719 10717 10715 10713 10711 10709 10707 10705 10703 10701 10700 10698 10696 10694 10693 10691 10689 10688 10686 10684 10682 10680 10678 10676 10673 10671 10668 10666 10663 10660 10657 10654 10651 10648 10644